Weather History for Sterling, IL

Change the Weather History Date:

Sunday, September 9, 2012

  Actual Average Record
Temperature  
Mean Temperature 62 °F -  
Max Temperature 75 °F 76 °F 100 °F (2013)
Min Temperature 51 °F 52 °F 42 °F (2008)
Degree Days  
Heating Degree Days 3    
Growing Degree Days 12 (Base 50)    
Moisture  
Dew Point 49 °F    
Average Humidity 66    
Maximum Humidity 88    
Minimum Humidity 38    
Precipitation  
Precipitation 0.00 in - - ()
Sea Level Pressure  
Sea Level Pressure 30.07 in    
Wind  
Wind Speed 10 mph (North)    
Max Wind Speed 16 mph    
Max Gust Speed 23 mph    
Visibility 10 miles    
Events      
Averages and records for this station are not official NWS values.
T = Trace of Precipitation, MM = Missing Value Source: NWS Daily Summary

Daily Weather History Graph

Daily Weather History Graph

Search for Another Location

Airport:

Trip Planner

Search our weather history database for the weather conditions in past years. The results will help you decide how hot, cold, wet, or windy it might be!

Date:

Astronomy

Sep. 09, 2012 Rise Set
Actual Time 6:33 AM CDT 7:17 PM CDT
Civil Twilight 6:05 AM CDT 7:45 PM CDT
Nautical Twilight 5:31 AM CDT 8:18 PM CDT
Astronomical Twilight 4:57 AM CDT 8:53 PM CDT
Moon No Moon Rise 3:06 PM CDT (9/9)
Length of Visible Light 13h 40m
Length of Day
12h 44m
Last Quarter, 39% of the Moon is Illuminated
Sep 9
Last Quarter
Sep 15
New
Sep 22
First Quarter
Sep 29
Full
Oct 8
Last Quarter

Hourly Weather History & Observations

Time (CDT) Temp. Dew Point Humidity Pressure Visibility Wind Dir Wind Speed Gust Speed Precip Events Conditions
12:15 AM 59.0 °F 53.6 °F 82% 29.89 in 10.0 mi NNW 13.8 mph 21.9 mph N/A   Partly Cloudy
12:35 AM 59.0 °F 53.6 °F 82% 29.90 in 10.0 mi NNW 15.0 mph 18.4 mph N/A   Clear
12:55 AM 57.2 °F 53.6 °F 88% 29.91 in 10.0 mi NNW 15.0 mph 21.9 mph N/A   Clear
1:15 AM 57.2 °F 51.8 °F 82% 29.91 in 10.0 mi NNW 16.1 mph 20.7 mph N/A   Clear
1:35 AM 57.2 °F 51.8 °F 82% 29.92 in 10.0 mi NNW 15.0 mph 19.6 mph N/A   Clear
1:55 AM 55.4 °F 51.8 °F 88% 29.92 in 10.0 mi NNW 11.5 mph 20.7 mph N/A   Clear
2:15 AM 55.4 °F 50.0 °F 82% 29.93 in 10.0 mi North 11.5 mph - N/A   Clear
2:35 AM 55.4 °F 50.0 °F 82% 29.93 in 10.0 mi North 8.1 mph - N/A   Clear
2:55 AM 55.4 °F 50.0 °F 82% 29.93 in 10.0 mi North 9.2 mph 16.1 mph N/A   Clear
3:15 AM 53.6 °F 50.0 °F 88% 29.94 in 10.0 mi NNW 6.9 mph - N/A   Clear
3:55 AM 53.6 °F 48.2 °F 82% 29.96 in 10.0 mi NNW 6.9 mph - N/A   Clear
4:15 AM 53.6 °F 48.2 °F 82% 29.97 in 10.0 mi NNW 8.1 mph - N/A   Clear
4:35 AM 51.8 °F 48.2 °F 88% 29.97 in 10.0 mi NNW 9.2 mph - N/A   Clear
4:55 AM 53.6 °F 48.2 °F 82% 29.97 in 10.0 mi NNW 10.4 mph - N/A   Clear
5:15 AM 53.6 °F 48.2 °F 82% 29.98 in 10.0 mi North 10.4 mph - N/A   Clear
5:35 AM 53.6 °F 48.2 °F 82% 29.99 in 10.0 mi NNW 8.1 mph - N/A   Clear
5:55 AM 51.8 °F 48.2 °F 88% 30.00 in 10.0 mi NNW 9.2 mph - N/A   Clear
6:15 AM 53.6 °F 48.2 °F 82% 30.01 in 10.0 mi North 8.1 mph - N/A   Mostly Cloudy
6:35 AM 53.6 °F 48.2 °F 82% 30.02 in 10.0 mi NNW 6.9 mph - N/A   Mostly Cloudy
6:55 AM 51.8 °F 48.2 °F 88% 30.03 in 10.0 mi NNW 6.9 mph - N/A   Clear
7:15 AM 53.6 °F 50.0 °F 88% 30.04 in 10.0 mi NNW 6.9 mph - N/A   Partly Cloudy
7:35 AM 53.6 °F 50.0 °F 88% 30.06 in 10.0 mi NNW 6.9 mph - N/A   Mostly Cloudy
7:55 AM 53.6 °F 50.0 °F 88% 30.06 in 10.0 mi North 6.9 mph - N/A   Overcast
8:35 AM 55.4 °F 51.8 °F 88% 30.07 in 10.0 mi North 10.4 mph - N/A   Overcast
8:55 AM 57.2 °F 51.8 °F 82% 30.08 in 10.0 mi North 8.1 mph - N/A   Overcast
9:15 AM 59.0 °F 51.8 °F 77% 30.08 in 10.0 mi NNE 9.2 mph - N/A   Overcast
9:35 AM 60.8 °F 53.6 °F 77% 30.10 in 10.0 mi NNE 9.2 mph - N/A   Mostly Cloudy
9:55 AM 64.4 °F 53.6 °F 68% 30.11 in 10.0 mi North 11.5 mph - N/A   Mostly Cloudy
10:15 AM 64.4 °F 51.8 °F 64% 30.11 in 10.0 mi North 12.7 mph 18.4 mph N/A   Partly Cloudy
10:35 AM 66.2 °F 51.8 °F 60% 30.11 in 10.0 mi NNE 10.4 mph 17.3 mph N/A   Clear
10:55 AM 66.2 °F 50.0 °F 56% 30.11 in 10.0 mi North 13.8 mph 18.4 mph N/A   Clear
11:15 AM 68.0 °F 51.8 °F 56% 30.11 in 10.0 mi North 10.4 mph - N/A   Clear
11:35 AM 69.8 °F 48.2 °F 46% 30.12 in 10.0 mi North 10.4 mph 17.3 mph N/A   Clear
11:55 AM 69.8 °F 48.2 °F 46% 30.11 in 10.0 mi North 11.5 mph 17.3 mph N/A   Clear
12:15 PM 71.6 °F 48.2 °F 43% 30.11 in 10.0 mi North 13.8 mph 19.6 mph N/A   Clear
12:35 PM 71.6 °F 48.2 °F 43% 30.11 in 10.0 mi North 13.8 mph 20.7 mph N/A   Clear
12:55 PM 71.6 °F 46.4 °F 41% 30.11 in 10.0 mi North 11.5 mph 23.0 mph N/A   Clear
1:15 PM 73.4 °F 48.2 °F 41% 30.11 in 10.0 mi NNE 12.7 mph 21.9 mph N/A   Clear
1:35 PM 73.4 °F 48.2 °F 41% 30.12 in 10.0 mi North 12.7 mph 17.3 mph N/A   Clear
1:55 PM 73.4 °F 48.2 °F 41% 30.11 in 10.0 mi North 15.0 mph - N/A   Partly Cloudy
2:15 PM 73.4 °F 48.2 °F 41% 30.11 in 10.0 mi North 15.0 mph 20.7 mph N/A   Partly Cloudy
2:35 PM 73.4 °F 48.2 °F 41% 30.10 in 10.0 mi North 12.7 mph 20.7 mph N/A   Partly Cloudy
2:55 PM 73.4 °F 48.2 °F 41% 30.10 in 10.0 mi NNE 12.7 mph 19.6 mph N/A   Clear
3:15 PM 73.4 °F 48.2 °F 41% 30.10 in 10.0 mi North 11.5 mph 17.3 mph N/A   Partly Cloudy
3:35 PM 73.4 °F 48.2 °F 41% 30.11 in 10.0 mi North 8.1 mph - N/A   Partly Cloudy
3:55 PM 73.4 °F 48.2 °F 41% 30.10 in 10.0 mi NNW 8.1 mph - N/A   Partly Cloudy
4:15 PM 73.4 °F 46.4 °F 38% 30.10 in 10.0 mi North 11.5 mph - N/A   Partly Cloudy
4:35 PM 73.4 °F 48.2 °F 41% 30.10 in 10.0 mi NE 9.2 mph - N/A   Clear
4:55 PM 73.4 °F 48.2 °F 41% 30.11 in 10.0 mi North 9.2 mph - N/A   Clear
5:15 PM 73.4 °F 48.2 °F 41% 30.11 in 10.0 mi NW 11.5 mph - N/A   Clear
5:35 PM 73.4 °F 48.2 °F 41% 30.11 in 10.0 mi NNE 6.9 mph - N/A   Clear
5:55 PM 71.6 °F 46.4 °F 41% 30.12 in 10.0 mi North 9.2 mph - N/A   Partly Cloudy
6:15 PM 71.6 °F 46.4 °F 41% 30.12 in 10.0 mi North 6.9 mph - N/A   Partly Cloudy
6:35 PM 69.8 °F 46.4 °F 43% 30.12 in 10.0 mi NNE 5.8 mph - N/A   Clear
6:55 PM 68.0 °F 46.4 °F 46% 30.12 in 10.0 mi NNE 5.8 mph - N/A   Clear
7:15 PM 66.2 °F 48.2 °F 52% 30.12 in 10.0 mi NNE 5.8 mph - N/A   Clear
7:35 PM 64.4 °F 48.2 °F 56% 30.13 in 10.0 mi NNE 4.6 mph - N/A   Clear
7:55 PM 62.6 °F 48.2 °F 59% 30.13 in 10.0 mi NNE 4.6 mph - N/A   Clear
8:15 PM 60.8 °F 48.2 °F 63% 30.14 in 10.0 mi NNE 3.5 mph - N/A   Clear
8:35 PM 60.8 °F 48.2 °F 63% 30.15 in 10.0 mi Calm Calm - N/A   Clear
8:55 PM 60.8 °F 48.2 °F 63% 30.15 in 10.0 mi Calm Calm - N/A   Clear
9:15 PM 60.8 °F 48.2 °F 63% 30.15 in 10.0 mi NNE 3.5 mph - N/A   Clear
9:35 PM 59.0 °F 48.2 °F 67% 30.16 in 10.0 mi Calm Calm - N/A   Clear
9:55 PM 59.0 °F 50.0 °F 72% 30.16 in 10.0 mi Calm Calm - N/A   Clear
10:15 PM 53.6 °F 48.2 °F 82% 30.16 in 10.0 mi Calm Calm - N/A   Clear
10:35 PM 53.6 °F 48.2 °F 82% 30.16 in 10.0 mi Calm Calm - N/A   Clear
10:55 PM 53.6 °F 48.2 °F 82% 30.16 in 10.0 mi Calm Calm - N/A   Clear
11:15 PM 51.8 °F 48.2 °F 88% 30.17 in 10.0 mi Calm Calm - N/A   Clear
11:35 PM 51.8 °F 48.2 °F 88% 30.17 in 10.0 mi Calm Calm - N/A   Clear
11:55 PM 53.6 °F 48.2 °F 82% 30.17 in 10.0 mi ESE 5.8 mph - N/A   Clear